Home   Weather   St. Augustine   Past weeks

Flag for USA Past Weather in St. Augustine, Florida, USA — Yesterday and Last 2 Weeks

Now
79 °F

Scattered clouds.


Feels Like: 82 °F
Forecast: 75 / 83 °F
Wind: 17 mph from Southeast

Location: St. Augustine Airport

Current Time: Apr 30, 2017 at 6:49:14 pm

Latest Report: Apr 30, 2017 at 6:15 pm


Visibility: 10 mi

Pressure: 30.10 "Hg

Humidity: 79%

Dew Point: 72 °F

Location of St. AugustineLocation

Past Weather in St. Augustine — Graph

°F

St. Augustine Temperature Yesterday

Maximum temperature yesterday: 84 °F (at 2:56 pm)
Minimum temperature yesterday: 75 °F (at 9:56 pm)
Average temperature yesterday: 78 °F

High & Low Weather Summary for the Past Weeks

 TemperatureHumidityPressure
High86 °F (Apr 27, 10:56 am)94% (Apr 28, 10:34 pm)30.30 "Hg (Apr 28, 10:34 pm)
Low56 °F (Apr 25, 5:56 am)38% (Apr 25, 5:56 pm)29.66 "Hg (Apr 24, 4:56 pm)
Average74 °F73%30.03 "Hg
* Reported Apr 15 4:56 pm — Apr 30 4:56 pm, St. Augustine, Weather by CustomWeather, © 2017

Note: Actual official high and low records may vary slightly from our data, if they occured in-between our weather recording intervals... More about our weather records

Advertising

St. Augustine Weather History for the Previous 24 Hours

Scroll right to see more
 ConditionsComfort  
Time TempWeatherWind HumidityBarometerVisibility
4:56 pm
Sun, Apr 30
81 °FPartly sunny.20 mph72%30.09 "Hg5 mi
4:27 pm82 °FPartly sunny.18 mph70%30.10 "Hg5 mi
3:56 pm81 °FScattered clouds.24 mph74%30.10 "Hg5 mi
2:56 pm83 °FSunny.21 mph70%30.12 "Hg5 mi
1:56 pm83 °FSunny.23 mph70%30.13 "Hg5 mi
12:56 pm81 °FScattered clouds.23 mph72%30.16 "Hg5 mi
11:56 am82 °FPartly sunny.20 mph70%30.16 "Hg5 mi
10:56 am79 °FPartly sunny.18 mph74%30.15 "Hg5 mi
9:56 am80 °FPartly sunny.21 mph74%30.15 "Hg5 mi
8:56 am78 °FPartly sunny.17 mph79%30.14 "Hg5 mi
7:56 am76 °FPartly sunny.14 mph85%30.14 "Hg5 mi
6:56 am75 °FBroken clouds.13 mph85%30.14 "Hg5 mi
5:56 am75 °FPassing clouds.13 mph88%30.14 "Hg10 mi
5:18 am75 °FPassing clouds.10 mph89%30.13 "Hg10 mi
4:56 am75 °FPassing clouds.10 mph88%30.13 "Hg10 mi
3:56 am75 °FClear.9 mph88%30.14 "Hg10 mi
2:56 am75 °FClear.10 mph88%30.13 "Hg10 mi
1:56 am75 °FClear.10 mph88%30.14 "Hg10 mi
12:56 am76 °FClear.13 mph85%30.15 "Hg10 mi
11:56 pm
Sat, Apr 29
75 °FClear.10 mph88%30.16 "Hg10 mi
10:56 pm75 °FClear.12 mph88%30.16 "Hg10 mi
9:56 pm75 °FClear.14 mph88%30.15 "Hg10 mi
8:56 pm76 °FClear.13 mph85%30.15 "Hg10 mi
7:56 pm76 °FSunny.13 mph88%30.14 "Hg10 mi
6:56 pm78 °FSunny.15 mph79%30.14 "Hg10 mi
Weather by CustomWeather, © 2017

See weather overviewHow to use our weather pages